Regional Weather Roundup
Issued by NWS

Home | Current Version | Previous Version | Text Only | Print | Product List | Glossary Off
Versions: 1 2 3 4 5 6 7 8 9 10 11 12 13 14 15 16 17 18 19 20 21 22 23 24 25 26 27 28 29 30 31 32 33 34 35 36 37 38 39 40 41 42 43 44 45 46 47 48 49 50

000
ASUS45 KSLC 312210
RWRUT

UTAH REGIONAL WEATHER ROUNDUP
NATIONAL WEATHER SERVICE SALT LAKE CITY UT
400 PM MDT FRI JUL 31 2015

UTZ001>011-023>025-312300-

NORTHERN UTAH

CITY           SKY/WX    TMP DP  RH WIND       PRES   REMARKS
BRIGHAM CITY   SUNNY     92  13   5 NW8       30.18F
HILL AFB       MOSUNNY   90  28  10 NW7       30.22F
LOGAN          SUNNY     93  27   9 N8        30.19F
OGDEN          MOSUNNY   93  25   8 NW12      30.18F
PROVO AIRPORT  MOSUNNY   88  45  22 SW6       30.19F
SALT LAKE CITY PTSUNNY   92  28  10 NW13      30.16F
VERNAL         SUNNY     91  14   6 W6        30.19F
WENDOVER       SUNNY     93  30  10 SE10      30.17F
HEBER CITY     SUNNY     91  27   9 SW9       30.23F
WEST JORDAN    SUNNY     90  34  13 NW9G16    30.20F

$$

UTZ012>022-026-027-312300-

SOUTHERN/CENTRAL UTAH

CITY           SKY/WX    TMP DP  RH WIND       PRES   REMARKS
BLANDING       SUNNY     85  48  28 E6        30.34F
BRYCE CANYON   CLOUDY    76  38  25 NE8       30.42F
CEDAR CITY     PTSUNNY   87  36  16 CALM      30.25F
DELTA          SUNNY     94  21   7 CALM      30.17F
HANKSVILLE     MOSUNNY   97  36  11 CALM      30.13F HX  92
MILFORD        SUNNY     98  35  11 N13       30.17F HX  93
MOAB/CYNLANDS  SUNNY     95  43  16 CALM      30.11F HX  91
PRICE          SUNNY     92  20   7 S8G16     30.23F
ST GEORGE      CLEAR     97  54  23 SW8       30.04F HX  94
KANAB          PTSUNNY   88  45  22 E18G24    30.23F

$$

REGIONAL REPORTS     COLORADO/ARIZONA

CITY           SKY/WX    TMP DP  RH WIND       PRES   REMARKS
CRAIG, CO      SUNNY     91  25   9 W8        30.26F
GRAND JUNCTION MOSUNNY   94  32  11 W13       30.15F
RIFLE          SUNNY     96  29   9 N5        30.18F HX  90
MONTROSE       PTSUNNY   87  38  17 W7        30.24F
CORTEZ         PTSUNNY   83  52  34 MISG      30.28F
PAGE, AZ       MOSUNNY   96  44  16 NW8       30.12F HX  92
GRAND CANYON   LGT RAIN  66  51  58 E10G20    30.36F
KINGMAN        SUNNY     98  49  18 W9G24     30.07F HX  95
FLAGSTAFF      CLOUDY    62  59  90 CALM      30.37F FOG

$$

REGIONAL REPORTS    NEVADA/IDAHO/WYOMING

CITY           SKY/WX    TMP DP  RH WIND       PRES   REMARKS
LAS VEGAS, NV  MOSUNNY  103  51  17 N7        29.92F HX 100
ELY            CLOUDY    87  22   9 VRB3      30.31F
ELKO           SUNNY     95  19   6 VRB5      30.20F
POCATELLO, ID  SUNNY     92  21   7 NW10      30.22F
BURLEY         SUNNY     90  29  11 N5        30.17F
EVANSTON, WY   SUNNY     84  19   9 N10G18    30.37F
ROCK SPRINGS   SUNNY     84  19   9 CALM      30.31F
KEMMERER       SUNNY     82  19   9 SW14G22   30.40F

$$



USA.gov is the U.S. government's official web portal to all federal, state and local government web resources and services.